Tucumcari, NM

11:52 AM MDT on April 26, 2017 (GMT -0600)
Tucumcari Municipal

Weather History for KTCC - December, 2013

Change the Weather History Date:

Sunday, December 1, 2013

  Actual Average Record
Temperature  
Mean Temperature 50 °F -  
Max Temperature 64 °F 58 °F 76 °F (1973)
Min Temperature 37 °F 28 °F 11 °F (1944)
Degree Days  
Heating Degree Days 14    
Moisture  
Dew Point 28 °F    
Average Humidity 47    
Maximum Humidity 76    
Minimum Humidity 19    
Precipitation  
Precipitation 0.00 in - - ()
Sea Level Pressure  
Sea Level Pressure 30.00 in    
Wind  
Wind Speed 9 mph (West)    
Max Wind Speed 16 mph    
Max Gust Speed -    
Visibility 10 miles    
Events      
Averages and records for this station are not official NWS values.
T = Trace of Precipitation, MM = Missing Value Source: NWS Daily Summary

Daily Weather History Graph

Daily Weather History Graph

Search for Another Location

Airport or City:

Trip Planner

Search our weather history database for the weather conditions in past years. The results will help you decide how hot, cold, wet, or windy it might be!

Date:

Astronomy

Dec. 01, 2013 Rise Set
Actual Time 6:44 AM MST 4:42 PM MST
Civil Twilight 6:16 AM MST 5:10 PM MST
Nautical Twilight 5:45 AM MST 5:41 PM MST
Astronomical Twilight 5:14 AM MST 6:12 PM MST
Moon 5:08 AM MST (12/1) 3:51 PM MST (12/1)
Length of Visible Light 10h 53m
Length of Day
9h 57m
Waning Crescent, 2% of the Moon is Illuminated
Dec 1
Waning Crescent
Dec 2
New
Dec 9
First Quarter
Dec 17
Full
Dec 25
Last Quarter

Hourly Weather History & Observations

Time (MST) Temp. Windchill Dew Point Humidity Pressure Visibility Wind Dir Wind Speed Gust Speed Precip Events Conditions
12:53 AM 46.9 °F - 33.1 °F 59% 30.04 in 10.0 mi West 13.8 mph - N/A   Clear
1:53 AM 43.0 °F 39.5 °F 33.1 °F 68% 30.05 in 10.0 mi WSW 5.8 mph - N/A   Clear
2:53 AM 45.0 °F 40.6 °F 33.1 °F 63% 30.05 in 10.0 mi West 8.1 mph - N/A   Clear
3:53 AM 43.0 °F 38.8 °F 30.9 °F 62% 30.04 in 10.0 mi NW 6.9 mph - N/A   Clear
4:53 AM 39.9 °F 35.8 °F 30.9 °F 70% 30.06 in 10.0 mi WSW 5.8 mph - N/A   Clear
5:53 AM 37.9 °F 35.5 °F 30.9 °F 76% 30.09 in 10.0 mi SW 3.5 mph - N/A   Clear
6:53 AM 37.9 °F 34.4 °F 30.9 °F 76% 30.09 in 10.0 mi West 4.6 mph - N/A   Clear
7:53 AM 45.0 °F 39.3 °F 33.1 °F 63% 30.09 in 10.0 mi West 11.5 mph - N/A   Clear
8:53 AM 46.9 °F - 32.0 °F 56% 30.08 in 10.0 mi West 11.5 mph - N/A   Clear
9:53 AM 52.0 °F - 32.0 °F 47% 30.07 in 10.0 mi WSW 10.4 mph - N/A   Clear
10:53 AM 59.0 °F - 30.0 °F 33% 30.03 in 10.0 mi WSW 15.0 mph - N/A   Clear
11:53 AM 62.1 °F - 25.0 °F 24% 29.99 in 10.0 mi WSW 13.8 mph - N/A   Clear
12:53 PM 64.9 °F - 24.1 °F 21% 29.95 in 10.0 mi West 11.5 mph - N/A   Clear
1:53 PM 64.9 °F - 21.9 °F 19% 29.95 in 10.0 mi NW 8.1 mph - N/A   Clear
2:53 PM 64.9 °F - 21.0 °F 19% 29.94 in 10.0 mi NW 8.1 mph - N/A   Clear
3:53 PM 64.0 °F - 23.0 °F 21% 29.94 in 10.0 mi NW 5.8 mph - N/A   Clear
4:53 PM 55.9 °F - 23.0 °F 28% 29.96 in 10.0 mi WSW 3.5 mph - N/A   Clear
5:53 PM 48.9 °F - 25.0 °F 39% 29.96 in 10.0 mi SW 6.9 mph - N/A   Clear
6:53 PM 51.1 °F - 26.1 °F 38% 29.97 in 10.0 mi WSW 9.2 mph - N/A   Clear
7:53 PM 44.1 °F 39.0 °F 26.1 °F 49% 29.96 in 10.0 mi SW 9.2 mph - N/A   Clear
8:53 PM 45.0 °F 40.1 °F 27.0 °F 49% 29.94 in 10.0 mi WSW 9.2 mph - N/A   Clear
9:53 PM 46.0 °F 39.9 °F 27.0 °F 47% 29.91 in 10.0 mi West 13.8 mph - N/A   Clear
10:53 PM 46.0 °F 39.3 °F 26.1 °F 46% 29.88 in 10.0 mi West 16.1 mph - N/A   Clear
11:53 PM 44.1 °F 38.1 °F 26.1 °F 49% 29.87 in 10.0 mi WSW 11.5 mph - N/A   Clear